Location: Unspecified
(0.0000°N, 0.0000°E)
Time: 12:05:44
(UTC+00:00)

ITAMSAT 1 - Pass Details

Date: 04 October 2021
Orbit: 783 x 797 km, 98.9° (Epoch: 15 October)

Event Time Altitude Azimuth Distance (km) Brightness Sun altitude
Rises 19:27:30 0° 186° (S) 3,286 11.0 -24.6°
Reaches altitude 10° 19:30:03 10° 196° (SSW) 2,352 10.3 -25.3°
Maximum altitude 19:34:35 31° 257° (WSW) 1,349 9.4 -26.4°
Drops below altitude 10° 19:39:06 10° 318° (NW) 2,337 10.5 -27.5°
Sets 19:41:39 0° 329° (NNW) 3,260 11.2 -28.2°
